DW7780 Weather Reports


time (UTC)temp
C
wind
direction
speed
KPH
gust
KPH
rain 1hr
cm
rain 24hr
cm
rain mn
cm
humidity
%
barometer
mb
20260505151530 24 103 1.6 17.7 0.00 0.00 0.00 48 1010.4
20260505124530 18 311 4.8 14.5 0.00 0.00 0.00 64 1011.2
20260505123027 17 0 0.0 9.7 0.00 0.00 0.00 69 1011.1
20260505121532 14 0 0.0 3.2 0.00 0.00 0.00 80 1011.0
20260505120039 12 0 0.0 3.2 0.00 0.00 0.00 90 1011.1
20260505114530 11 0 0.0 0.0 0.00 0.00 0.00 91 1011.1
20260505113027 10 0 0.0 0.0 0.00 0.00 0.00 92 1011.0
20260505111531 9 0 0.0 0.0 0.00 0.00 0.00 91 1011.0
20260505101530 8 0 0.0 0.0 0.00 0.00 0.00 88 1010.8
20260505100030 8 0 0.0 0.0 0.00 0.00 0.00 88 1010.6
20260505094530 9 0 0.0 0.0 0.00 0.00 0.00 88 1010.4
20260505093027 10 0 0.0 0.0 0.00 0.00 0.00 87 1010.2
20260505091532 10 0 0.0 0.0 0.00 0.00 0.00 86 1010.1
20260505090030 10 0 0.0 0.0 0.00 0.00 0.00 86 1010.0
20260505084543 10 0 0.0 0.0 0.00 0.00 0.00 85 1010.0
20260505083046 11 0 0.0 0.0 0.00 0.00 0.00 84 1010.0
20260505081530 11 0 0.0 0.0 0.00 0.00 0.00 84 1010.0
20260505080037 11 0 0.0 0.0 0.00 0.00 0.00 84 1010.1
20260505074530 11 0 0.0 0.0 0.00 0.00 0.00 83 1010.1
20260505073040 11 0 0.0 0.0 0.00 0.00 0.00 82 1010.0
20260505071541 12 0 0.0 0.0 0.00 0.00 0.00 82 1010.0
20260505070040 12 0 0.0 3.2 0.00 0.00 0.00 82 1009.9
20260505064535 12 0 0.0 3.2 0.00 0.00 0.00 82 1009.9
20260505063036 12 0 0.0 0.0 0.00 0.00 0.00 82 1009.7
20260505061531 11 281 0.0 3.2 0.00 0.00 0.00 84 1009.9
20260505060049 10 0 0.0 0.0 0.00 0.00 0.00 85 1009.8
20260505054526 9 0 0.0 3.2 0.00 0.00 0.00 86 1009.7
20260505053028 8 0 0.0 3.2 0.00 0.00 0.00 85 1009.9
20260505051530 8 0 0.0 0.0 0.00 0.00 0.00 85 1010.0
20260505041537 8 0 0.0 0.0 0.00 0.00 0.00 83 1010.0
20260505040027 9 0 0.0 0.0 0.00 0.00 0.00 82 1010.1
20260505034526 9 0 0.0 0.0 0.00 0.00 0.00 81 1010.0
20260505033026 9 0 0.0 0.0 0.00 0.00 0.00 81 1010.1
20260505031527 10 0 0.0 0.0 0.00 0.00 0.00 81 1010.2
20260505030027 10 0 0.0 0.0 0.00 0.00 0.00 80 1010.3
20260505024528 10 0 0.0 0.0 0.00 0.00 0.00 79 1010.4
20260505023028 10 0 0.0 0.0 0.00 0.00 0.00 78 1010.3
20260505021526 11 0 0.0 0.0 0.00 0.00 0.00 77 1010.4
20260505020035 11 0 0.0 0.0 0.00 0.00 0.00 76 1010.4
20260505014535 11 0 0.0 0.0 0.00 0.00 0.00 75 1010.4
20260505013037 12 0 0.0 0.0 0.00 0.00 0.00 75 1010.4
20260505011535 12 0 0.0 0.0 0.00 0.00 0.00 70 1010.2
20260505010028 13 0 0.0 0.0 0.00 0.00 0.00 70 1010.0
20260505004541 14 0 0.0 0.0 0.00 0.00 0.00 65 1009.7
20260505003049 15 0 0.0 0.0 0.00 0.00 0.00 62 1009.7
20260505001528 16 0 0.0 0.0 0.00 0.00 0.00 56 1009.5
20260505000031 18 0 0.0 0.0 0.00 0.00 0.00 50 1009.5
20260504234530 19 0 0.0 4.8 0.00 0.00 0.00 47 1009.3
20260504233029 20 0 0.0 8.0 0.00 0.00 0.00 44 1009.2
20260504231527 20 0 1.6 9.7 0.00 0.00 0.00 39 1009.1
20260504230027 20 0 0.0 6.4 0.00 0.00 0.00 40 1009.0
20260504224526 21 0 1.6 14.5 0.00 0.00 0.00 38 1009.1
20260504223032 21 284 1.6 12.9 0.00 0.00 0.00 38 1009.2
20260504221529 21 252 3.2 16.1 0.00 0.00 0.00 38 1009.1
20260504220031 21 248 0.0 12.9 0.00 0.00 0.00 37 1009.2
20260504214529 21 132 0.0 4.8 0.00 0.00 0.00 38 1009.2
20260504213030 22 0 1.6 17.7 0.00 0.00 0.00 36 1009.4
20260504211536 22 266 4.8 14.5 0.00 0.00 0.00 37 1009.3
20260504210028 22 254 3.2 20.9 0.00 0.00 0.00 37 1009.3
20260504204529 21 0 4.8 12.9 0.00 0.00 0.00 36 1009.5
20260504203028 21 0 3.2 12.9 0.00 0.00 0.00 37 1009.4
20260504201530 22 227 4.8 17.7 0.00 0.00 0.00 37 1009.5
20260504200030 21 278 1.6 16.1 0.00 0.00 0.00 37 1009.6
20260504194528 21 286 3.2 16.1 0.00 0.00 0.00 39 1009.7
20260504193027 21 267 1.6 12.9 0.00 0.00 0.00 39 1009.8
20260504191528 21 255 3.2 19.3 0.00 0.00 0.00 38 1009.9
20260504190028 21 309 4.8 19.3 0.00 0.00 0.00 37 1010.0
20260504184542 21 306 3.2 19.3 0.00 0.00 0.00 37 1010.3
20260504183030 21 273 4.8 17.7 0.00 0.00 0.00 39 1010.6
20260504181534 21 228 6.4 19.3 0.00 0.00 0.00 37 1010.9
20260504180030 21 273 8.0 16.1 0.00 0.00 0.00 36 1011.2
20260504174528 20 279 8.0 20.9 0.00 0.00 0.00 36 1011.3
20260504173028 21 288 4.8 16.1 0.00 0.00 0.00 38 1011.3
20260504171530 20 325 1.6 17.7 0.00 0.00 0.00 42 1011.5